TimeCDT,TemperatureF,Dew PointF,Humidity,Sea Level PressureIn,VisibilityMPH,Wind Direction,Wind SpeedMPH,Gust SpeedMPH,PrecipitationIn,Events,Conditions,WindDirDegrees,DateUTC
12:15 AM,46.6,38.7,74,30.08,10.0,SE,10.4,-,N/A,,Overcast,140,2013-10-30 05:15:00
12:35 AM,46.9,38.7,73,30.08,10.0,SE,8.1,-,N/A,,Overcast,140,2013-10-30 05:35:00
12:55 AM,46.9,38.8,73,30.08,10.0,SE,5.8,-,N/A,,Overcast,140,2013-10-30 05:55:00
1:15 AM,46.8,38.7,73,30.07,10.0,ESE,6.9,-,N/A,,Overcast,120,2013-10-30 06:15:00
1:35 AM,46.8,38.8,74,30.07,10.0,SE,5.8,-,N/A,,Overcast,130,2013-10-30 06:35:00
1:55 AM,47.1,38.8,73,30.07,10.0,SE,4.6,-,N/A,,Overcast,140,2013-10-30 06:55:00
2:15 AM,46.9,39.2,74,30.07,10.0,SE,5.8,-,N/A,,Overcast,140,2013-10-30 07:15:00
2:35 AM,46.8,39.2,75,30.07,10.0,SSE,5.8,-,N/A,,Overcast,150,2013-10-30 07:35:00
2:55 AM,46.8,39.2,75,30.06,10.0,SE,6.9,-,N/A,,Overcast,140,2013-10-30 07:55:00
3:15 AM,46.6,39.2,75,30.06,10.0,SSE,5.8,-,N/A,,Overcast,150,2013-10-30 08:15:00
3:35 AM,45.5,39.2,79,30.06,10.0,SE,4.6,-,N/A,,Overcast,140,2013-10-30 08:35:00
3:55 AM,45.9,39.7,79,30.05,7.0,SE,5.8,-,N/A,,Overcast,130,2013-10-30 08:55:00
4:15 AM,46.6,40.1,78,30.05,7.0,SE,6.9,-,N/A,,Overcast,140,2013-10-30 09:15:00
4:35 AM,46.4,40.1,79,30.05,10.0,SE,6.9,-,N/A,,Overcast,130,2013-10-30 09:35:00
4:55 AM,46.4,40.1,79,30.05,7.0,SE,5.8,-,N/A,,Overcast,130,2013-10-30 09:55:00
5:15 AM,46.4,40.1,79,30.04,7.0,ESE,6.9,-,N/A,,Overcast,110,2013-10-30 10:15:00
5:35 AM,46.4,40.3,79,30.05,7.0,ESE,6.9,-,N/A,,Overcast,110,2013-10-30 10:35:00
5:55 AM,46.4,40.3,79,30.04,7.0,ESE,5.8,-,N/A,,Overcast,110,2013-10-30 10:55:00
6:15 AM,46.4,40.5,80,30.03,7.0,East,5.8,-,N/A,,Overcast,100,2013-10-30 11:15:00
6:35 AM,46.0,41.4,84,30.03,7.0,ESE,5.8,-,N/A,,Overcast,110,2013-10-30 11:35:00
6:55 AM,45.7,41.9,87,30.02,7.0,East,8.1,-,N/A,,Overcast,100,2013-10-30 11:55:00
7:15 AM,45.7,41.9,87,30.02,5.0,ESE,9.2,-,N/A,,Overcast,110,2013-10-30 12:15:00
7:35 AM,45.7,42.3,88,30.02,5.0,ESE,6.9,-,N/A,,Overcast,110,2013-10-30 12:35:00
7:55 AM,45.9,42.6,88,30.02,5.0,East,6.9,-,N/A,,Overcast,100,2013-10-30 12:55:00
8:15 AM,45.9,42.8,89,30.02,3.0,ESE,9.2,-,N/A,,Overcast,110,2013-10-30 13:15:00
8:35 AM,46.2,43.0,88,30.02,3.0,ESE,9.2,-,N/A,,Overcast,110,2013-10-30 13:35:00
8:55 AM,46.9,43.9,89,30.02,3.0,ESE,9.2,-,N/A,,Overcast,120,2013-10-30 13:55:00
9:15 AM,47.3,45.5,93,30.03,2.0,SE,9.2,-,N/A,,Overcast,130,2013-10-30 14:15:00
9:35 AM,46.9,46.9,100,30.02,1.0,SE,9.2,-,N/A,,Overcast,130,2013-10-30 14:35:00
9:55 AM,47.1,47.1,100,30.02,1.0,SE,9.2,-,N/A,,Overcast,130,2013-10-30 14:55:00
10:15 AM,47.5,47.5,100,30.00,1.0,ESE,10.4,-,N/A,,Overcast,120,2013-10-30 15:15:00
10:35 AM,47.8,47.8,100,29.99,1.0,ESE,6.9,-,N/A,,Overcast,120,2013-10-30 15:35:00
10:55 AM,48.9,48.9,100,29.98,1.8,ESE,10.4,-,N/A,,Overcast,110,2013-10-30 15:55:00
11:15 AM,49.5,49.1,99,29.99,2.0,SE,9.2,-,N/A,,Overcast,130,2013-10-30 16:15:00
11:35 AM,49.1,49.1,100,29.99,1.5,SE,10.4,-,N/A,,Overcast,140,2013-10-30 16:35:00
11:55 AM,49.1,49.1,100,29.99,1.2,SE,10.4,-,N/A,,Overcast,140,2013-10-30 16:55:00
12:15 PM,49.3,49.3,100,29.97,0.5,SE,8.1,-,N/A,,Overcast,140,2013-10-30 17:15:00
12:35 PM,49.3,49.3,100,29.95,0.8,SE,12.7,-,N/A,,Overcast,130,2013-10-30 17:35:00
12:55 PM,49.6,49.6,100,29.93,1.0,SE,12.7,-,N/A,,Overcast,130,2013-10-30 17:55:00
1:15 PM,49.5,49.5,100,29.92,0.8,SE,11.5,-,N/A,,Overcast,130,2013-10-30 18:15:00
1:35 PM,49.5,49.5,100,29.92,0.8,SE,11.5,-,N/A,,Overcast,140,2013-10-30 18:35:00
1:55 PM,49.6,49.6,100,29.92,0.2,SE,6.9,-,N/A,,Overcast,130,2013-10-30 18:55:00
2:15 PM,50.0,50.0,100,29.90,0.2,ESE,8.1,-,N/A,,Overcast,120,2013-10-30 19:15:00
2:35 PM,50.0,50.0,100,29.88,0.2,ESE,6.9,-,N/A,,Overcast,120,2013-10-30 19:35:00
2:55 PM,50.0,50.0,100,29.87,0.2,ESE,10.4,-,N/A,,Overcast,110,2013-10-30 19:55:00
3:15 PM,50.2,50.2,100,29.82,0.2,East,11.5,-,N/A,,Overcast,90,2013-10-30 20:15:00
3:35 PM,50.5,50.5,100,29.83,0.2,East,9.2,-,N/A,,Overcast,80,2013-10-30 20:35:00
3:55 PM,51.4,51.4,100,29.82,0.8,ENE,8.1,-,N/A,,Overcast,70,2013-10-30 20:55:00
4:15 PM,51.8,51.8,100,29.83,1.8,East,4.6,-,N/A,,Overcast,80,2013-10-30 21:15:00
4:35 PM,52.7,52.7,100,29.82,2.5,East,6.9,-,N/A,,Overcast,100,2013-10-30 21:35:00
4:55 PM,52.3,52.3,100,29.82,2.5,East,8.1,-,N/A,,Overcast,100,2013-10-30 21:55:00
5:15 PM,52.2,52.2,100,29.81,2.5,East,6.9,-,N/A,,Overcast,100,2013-10-30 22:15:00
5:35 PM,52.3,52.3,100,29.81,2.5,East,8.1,-,N/A,,Overcast,100,2013-10-30 22:35:00
5:55 PM,52.0,52.0,100,29.80,1.8,East,6.9,-,N/A,,Overcast,90,2013-10-30 22:55:00
6:15 PM,52.0,52.0,100,29.80,1.8,East,6.9,-,N/A,,Overcast,90,2013-10-30 23:15:00
7:55 PM,52.3,52.3,100,29.80,2.5,SE,4.6,-,N/A,,Overcast,140,2013-10-31 00:55:00
8:15 PM,52.3,52.3,100,29.79,2.0,SSE,3.5,-,N/A,,Overcast,150,2013-10-31 01:15:00
8:35 PM,52.2,52.2,100,29.77,1.5,ESE,6.9,-,N/A,,Overcast,120,2013-10-31 01:35:00
8:55 PM,52.2,52.2,100,29.76,1.0,SE,8.1,-,N/A,,Overcast,140,2013-10-31 01:55:00
9:15 PM,52.0,52.0,100,29.75,0.8,SSE,10.4,-,N/A,,Overcast,150,2013-10-31 02:15:00
9:35 PM,52.0,52.0,100,29.75,0.5,SSE,10.4,-,N/A,,Overcast,150,2013-10-31 02:35:00
9:55 PM,52.0,52.0,100,29.74,1.2,SSE,6.9,-,N/A,,Overcast,150,2013-10-31 02:55:00
10:15 PM,52.2,52.2,100,29.75,2.0,SSE,9.2,-,N/A,,Overcast,160,2013-10-31 03:15:00
10:35 PM,52.7,52.7,100,29.75,3.0,SSE,8.1,-,N/A,,Overcast,160,2013-10-31 03:35:00
10:55 PM,52.7,52.7,100,29.73,3.0,SE,8.1,-,N/A,,Overcast,140,2013-10-31 03:55:00
11:15 PM,52.5,52.5,100,29.72,2.5,SE,5.8,-,N/A,,Overcast,140,2013-10-31 04:15:00
11:35 PM,52.7,52.7,100,29.71,3.0,SE,8.1,-,N/A,,Overcast,130,2013-10-31 04:35:00
11:55 PM,52.7,52.7,100,29.70,2.5,ESE,5.8,-,N/A,,Overcast,120,2013-10-31 04:55:00